CW1172 Uddevalla SE current weather conditions

sailwx.info

Wind from 216

Air temperature 16.1° C
Dewpoint 13.4° C

Last reported at 2019-Sep-21 17:01 UTC.
Time now 2019-Sep-21 18:01 UTC

Location: N 58°13' E 011°56'.
View on Google Maps.

See reports from other nearby stations

  
Tides and Currents Weather Stations Pressure Air Temp Water Temp Dewpoint Dewpoint Depression Visibility Wind Speed Wind Dir Waves Ship Positions
date/time (UTC)wind fromknots sea level pressurealtimeterstation pressurevisibilityair tempwater tempwave heightnotes
2019-Sep-21 17:01 216 16.1
2019-Sep-21 16:47 232 16.7
2019-Sep-21 16:31 222 17.2
2019-Sep-21 16:16 224 0 17.8
2019-Sep-21 16:02 254 18.3
2019-Sep-21 15:47 232 1 18.9
2019-Sep-21 15:31 247 2 19.4
2019-Sep-21 15:19 234 0 19.4
2019-Sep-21 15:02 241 0 19.4
2019-Sep-21 14:47 188 2 19.4
2019-Sep-21 14:32 203 4 19.4
2019-Sep-21 14:16 244 5 19.4
2019-Sep-21 14:02 217 5 19.4
2019-Sep-21 13:48 250 4 20.0
2019-Sep-21 13:32 212 3 20.6
2019-Sep-21 13:17 220 5 21.1
2019-Sep-21 13:02 270 5 21.1
2019-Sep-21 12:46 232 3 21.1
2019-Sep-21 12:31 247 1 21.7
2019-Sep-21 12:16 230 0 21.7
2019-Sep-21 12:01 272 0 21.1
2019-Sep-21 11:46 241 1 20.6
2019-Sep-21 11:31 295 20.0
2019-Sep-21 11:16 234 20.0
2019-Sep-21 11:01 226 0 20.0
2019-Sep-21 10:46 181 2 19.4
2019-Sep-21 10:30 246 1 18.9
2019-Sep-21 10:16 240 19.4
2019-Sep-21 10:01 226 18.9
2019-Sep-21 09:45 237 17.8
2019-Sep-21 09:30 220 17.8
2019-Sep-21 09:15 254 0 16.7
2019-Sep-21 09:00 147 17.2
2019-Sep-21 08:45 147 16.7
2019-Sep-21 08:30 147 17.2
2019-Sep-21 08:15 145 16.7
2019-Sep-21 08:00 145 16.7
2019-Sep-21 07:45 147 16.1
2019-Sep-21 07:32 147 15.0
2019-Sep-21 07:17 147 14.4
2019-Sep-21 07:02 145 12.8
2019-Sep-21 06:47 145 10.6
2019-Sep-21 06:31 147 10.0
2019-Sep-21 06:17 145 9.4
2019-Sep-21 06:01 147 8.3
2019-Sep-21 05:48 145 8.3
2019-Sep-21 05:31 145 8.3
2019-Sep-21 05:17 147 8.3
2019-Sep-21 05:01 145 7.8
2019-Sep-21 04:46 145 8.3
2019-Sep-21 04:31 147 8.3
2019-Sep-21 04:16 145 8.3
2019-Sep-21 04:01 147 7.8
2019-Sep-21 03:46 145 8.3
2019-Sep-21 03:31 145 8.3
2019-Sep-21 03:15 144 8.3
2019-Sep-21 03:03 145 8.9
2019-Sep-21 02:46 145 8.3
2019-Sep-21 02:31 145 8.3
2019-Sep-21 02:16 147 8.3
2019-Sep-21 02:01 145 8.9
2019-Sep-21 01:46 147 8.9
2019-Sep-21 01:31 145 8.9
2019-Sep-21 01:16 145 9.4
2019-Sep-21 01:00 147 9.4
2019-Sep-21 00:45 145 9.4
2019-Sep-21 00:31 145 10.0
2019-Sep-21 00:15 145 10.0
2019-Sep-21 00:01 147 10.6
2019-Sep-20 23:45 145 10.6
2019-Sep-20 23:31 147 10.6
2019-Sep-20 23:15 145 11.1
2019-Sep-20 23:00 145 11.1
2019-Sep-20 22:46 145 11.1
2019-Sep-20 22:31 145 11.1
2019-Sep-20 22:15 147 11.1
2019-Sep-20 22:00 147 11.7
2019-Sep-20 21:45 147 12.2
2019-Sep-20 21:30 145 12.2
2019-Sep-20 21:15 145 12.8
2019-Sep-20 21:00 144 13.3
2019-Sep-20 20:45 145 13.3
2019-Sep-20 20:30 172 13.3
2019-Sep-20 20:15 157 13.3
2019-Sep-20 20:00 155 13.9
2019-Sep-20 19:45 200 0 13.9
2019-Sep-20 19:30 189 13.9
2019-Sep-20 19:16 186 13.9
2019-Sep-20 19:00 181 0 13.9
2019-Sep-20 18:45 189 0 13.9
2019-Sep-20 18:30 202 13.9
2019-Sep-20 18:15 168 13.9
2019-Sep-20 18:00 229 13.9
2019-Sep-20 17:45 220 13.9
2019-Sep-20 17:30 203 0 13.9
2019-Sep-20 17:15 240 2 13.9
2019-Sep-20 17:00 217 0 14.4
2019-Sep-20 16:45 226 14.4
2019-Sep-20 16:30 254 1 14.4
2019-Sep-20 16:15 237 2 15.0
2019-Sep-20 16:00 216 1 15.6
2019-Sep-20 15:45 243 4 15.6
2019-Sep-20 15:30 247 4 16.1
2019-Sep-20 15:15 253 3 16.7
2019-Sep-20 15:00 192 5 16.7
2019-Sep-20 14:45 248 4 16.7
2019-Sep-20 14:30 237 5 17.2
2019-Sep-20 14:18 234 5 17.2
2019-Sep-20 14:02 217 4 17.8
2019-Sep-20 13:46 230 3 18.3
2019-Sep-20 13:31 234 1 18.3
2019-Sep-20 13:16 313 0 18.3
2019-Sep-20 13:01 288 1 18.3
2019-Sep-20 12:46 237 0 18.3
2019-Sep-20 12:31 275 0 17.8
2019-Sep-20 12:17 326 17.8
2019-Sep-20 12:01 316 17.8
2019-Sep-20 11:45 271 0 17.2
2019-Sep-20 11:31 246 16.7
2019-Sep-20 11:15 271 0 16.1
2019-Sep-20 11:00 237 16.1
2019-Sep-20 10:45 244 0 15.6
2019-Sep-20 10:30 250 0 15.6
2019-Sep-20 10:17 261 15.0
2019-Sep-20 10:01 232 14.4
2019-Sep-20 09:46 215 13.9
2019-Sep-20 09:31 254 13.3
2019-Sep-20 09:16 248 13.3
2019-Sep-20 09:01 232 13.3
2019-Sep-20 08:46 219 13.3
2019-Sep-20 08:31 253 13.3
2019-Sep-20 08:17 250 13.3
2019-Sep-20 08:01 257 13.9
2019-Sep-20 07:46 243 13.3
2019-Sep-20 07:31 222 12.2
2019-Sep-20 07:16 217 12.2
2019-Sep-20 07:01 236 11.7
2019-Sep-20 06:45 224 10.6
2019-Sep-20 06:31 234 9.4
2019-Sep-20 06:16 236 8.3
2019-Sep-20 06:00 236 8.3
2019-Sep-20 05:45 215 7.8
2019-Sep-20 05:31 216 7.8
2019-Sep-20 05:15 215 8.3
2019-Sep-20 05:00 216 8.3
2019-Sep-20 04:45 157 8.9
2019-Sep-20 04:31 157 8.9
2019-Sep-20 04:15 185 0 8.9
2019-Sep-20 04:01 164 0 8.9
2019-Sep-20 03:45 169 0 8.9
2019-Sep-20 03:30 174 8.3
2019-Sep-20 03:15 141 8.3
2019-Sep-20 03:00 148 8.3
2019-Sep-20 02:45 145 8.3
2019-Sep-20 02:32 158 7.8
2019-Sep-20 02:16 161 7.8
2019-Sep-20 02:01 143 7.8
2019-Sep-20 01:46 144 7.8
2019-Sep-20 01:33 134 7.8
2019-Sep-20 01:16 150 7.8
2019-Sep-20 01:02 148 7.2
2019-Sep-20 00:46 150 7.2
2019-Sep-20 00:31 104 7.2
2019-Sep-20 00:16 103 7.2
2019-Sep-20 00:01 104 7.2
2019-Sep-19 23:46 112 7.2
2019-Sep-19 23:31 112 7.2
2019-Sep-19 23:16 112 6.7
2019-Sep-19 23:00 107 6.7
2019-Sep-19 22:46 109 6.7
2019-Sep-19 22:31 107 6.7
2019-Sep-19 22:17 107 6.1
2019-Sep-19 22:01 107 6.1
2019-Sep-19 21:46 107 5.6
2019-Sep-19 21:30 107 5.6
2019-Sep-19 21:16 107 6.1
2019-Sep-19 21:00 107 6.1
2019-Sep-19 20:46 107 6.1
2019-Sep-19 20:31 114 6.1
2019-Sep-19 20:16 131 6.7
2019-Sep-19 20:01 137 6.7
2019-Sep-19 19:46 137 6.7
2019-Sep-19 19:30 185 6.7
2019-Sep-19 19:16 186 6.7
2019-Sep-19 19:00 186 7.2
2019-Sep-19 18:46 186 7.8
2019-Sep-19 18:31 185 7.8
2019-Sep-19 18:16 185 7.8
2019-Sep-19 18:01 265 8.3